Miscellaneous Local Product
Issued by NWS North Platte, NE

Home | Current Version | Previous Version | Text Only | Print | Product List | Glossary On
Versions: 1 2 3 4 5 6 7 8 9 10 11 12 13 14 15 16 17 18 19 20 21 22 23 24 25 26 27 28 29 30 31 32 33 34 35 36 37 38 39 40 41 42 43 44 45 46 47 48 49 50
000
AXUS43 KLBF 281010
MISLBF


WESTERN AND NORTH CENTRAL NEBRASKA HOURLY WEATHER ROUNDUP
NATIONAL WEATHER SERVICE NORTH PLATTE NE
500 AM CDT TUE JUL 28 2015

***STATIONS NOT REPORTING VARIABLES SUCH AS SKY/WEATHER OR
PRESSURE ARE PROVIDED BY THE NEBRASKA DEPARTMENT OF
ROADS...RAWS...AND APRS NETWORKS...AND ARE NOT UNDER
NATIONAL WEATHER SERVICE QUALITY CONTROL***

...OBSERVATIONS IN AND NEAR THE EASTERN PANHANDLE OF NEBRASKA...

CITY           SKY/WX    TMP DP  RH WIND       PRES   REMARKS
PINE RIDGE     CLEAR     57  51  80 W6        29.94R
CHADRON        CLEAR     57  47  69 W22G30    29.96R
ALLIANCE       CLEAR     59  47  64 NW14      29.96R
SIDNEY         CLEAR     60  49  66 N21G29    29.99R
BIG SPRINGS      N/A     70  51  51 NW7         N/A
$$

...OBSERVATIONS IN NORTH CENTRAL NEBRASKA...

CITY           SKY/WX    TMP DP  RH WIND       PRES   REMARKS
VALENTINE      PTCLDY    64  56  75 NW17G26   29.84R
THEDFORD       PTCLDY    66  64  91 N8        29.85R
AINSWORTH      MOCLDY    70  64  80 NW12      29.84R
O`NEILL        CLOUDY    69  69  98 S5        29.75S
ORD            MOCLDY    75  68  78 CALM      29.74F
BROKEN BOW     PTCLDY    75  69  81 CALM      29.76S
SPRINGVIEW       N/A     67  64  91 W3          N/A
CHAMBERS         N/A     73  69  86 CALM        N/A
EWING            N/A     71  68  91 E3          N/A
$$

...OBSERVATIONS IN SOUTHWEST NEBRASKA AND FAR NORTHEAST COLORADO...

CITY           SKY/WX    TMP DP  RH WIND       PRES   REMARKS
WRAY           FAIR      72  48  42 NW14G24   29.92R
HOLYOKE        FAIR      73  46  38 N17G28    29.93R
IMPERIAL       CLEAR     72  49  44 NW16      29.85R
OGALLALA       CLEAR     70  53  54 NW17G23   29.87R
NORTH PLATTE   CLEAR     72  67  84 CALM      29.79R
MCCOOK         PTCLDY    79  66  64 W12       29.77R
LEXINGTON      MOCLDY    79  68  69 SW5       29.77R
PAXTON           N/A     71  63  76 NW8         N/A
BRADY            N/A     73  68  84 CALM        N/A
CALLAWAY         N/A     72  69  89 CALM        N/A
$$

...NORTH PLATTE AREA...

CITY           SKY/WX    TMP DP  RH WIND       PRES   REMARKS
AIRPORT        CLEAR     72  67  84 CALM      29.79R
DOWNTOWN         N/A     72  65  77 N8          N/A
SANDRIDGE        N/A     74  67  78 N6G14       N/A
HILLCREST        N/A     71  63  77 N14         N/A
$$

...SOME WEATHER OBSERVATIONS FROM AROUND THE REGION...

CITY           SKY/WX    TMP DP  RH WIND       PRES   REMARKS
DENVER         CLEAR     57  39  51 SE12      30.05R
LARAMIE        CLEAR     49  27  42 W5        30.21R
CHEYENNE       CLEAR     58  29  33 NW16G28   30.12R
SCOTTSBLUFF    CLEAR     56  48  74 W8        30.01R
RAPID CITY     CLEAR     55  46  71 NW9       29.90R
PIERRE         CLOUDY    65  59  81 NW22      29.75R
WINNER         FAIR      64  59  83 W22G30    29.78R
SIOUX FALLS    TSTM      72  69  90 E14       29.76F
OMAHA          PTCLDY    77  72  84 S15       29.76F
GRAND ISLAND   PTCLDY    78  69  73 S16       29.73F
KANSAS CITY    CLEAR     76  74  93 SE8       29.88S
WICHITA        CLEAR     78  70  76 S9        29.87R
HAYS           PTCLDY    79  63  57 S15       29.80F
LIBERAL        PTCLDY    79  63  57 S14       29.88S
GOODLAND       CLEAR     73  57  57 NW18G25   29.87R
$$



USA.gov is the U.S. government's official web portal to all federal, state and local government web resources and services.